Regional Weather Roundup
Issued by NWS New Orleans/Baton Rouge, LA

Home | Current Version | Previous Version | Text Only | Print | Product List | Glossary Off
Versions: 1 2 3 4 5 6 7 8 9 10 11 12 13 14 15 16 17 18 19 20 21 22 23 24 25 26 27 28 29 30 31 32 33 34 35 36 37 38 39 40 41 42 43 44 45 46 47 48 49 50

991
ASUS44 KLIX 200901
RWRLIX
NEW ORLEANS REGIONAL WEATHER ROUNDUP
NATIONAL WEATHER SERVICE NEW ORLEANS LA
400 AM CDT WED AUG 20 2014

NOTE: "FAIR" INDICATES FEW OR NO CLOUDS BELOW 12,000 FEET WITH NO
      SIGNIFICANT WEATHER AND/OR OBSTRUCTIONS TO VISIBILITY.
      SKY/WX - SKY CONDITION AND SIGNIFICANT WEATHER.
      TMP - AIR TEMPERATURE.     DP    - DEWPOINT TEMPERATURE.
      RH  - RELATIVE HUMIDITY.   PRES  - PRESSURE.
      HI  - HEAT INDEX.          WCI   - WIND CHILL INDEX.

*  THESE STATIONS ARE NOT NWS OR FAA STATIONS AND ARE NOT UNDER
   NWS QUALITY CONTROL.

LAZ038-040-048-061>063-065>067-069-201000-
SOUTHEAST LOUISIANA

CITY           SKY/WX    TMP DP  RH WIND       PRES   REMARKS
N.O. AUDUBON   NOT AVBL
N.O. INTL ARPT PTCLDY    78  75  90 S5        29.98S
N.O. LAKEFRONT CLEAR     81  76  84 SW6       29.98S
N.O. DOWNTOWN*   N/A     82  73  74 S3        29.98F
SLIDELL        CLEAR     75  72  90 N3        29.98R
BATON ROUGE    CLEAR     73  70  90 CALM      29.97S
BOOTHVILLE     CLEAR     84  77  79 S7        29.99R
BELLE CHASSE   CLEAR     75  71  87 CALM      29.97S
BOGALUSA*        N/A     75  71  88 CALM      30.00R
GALLIANO*      NOT AVBL
NEW ROADS*       N/A     71  71  98 CALM      29.97S
GONZALES*        N/A     73  73 100 CALM      29.97R
HAMMOND*       NOT AVBL
HOUMA*         CLEAR     74  71  89 CALM      29.98R FOG
PORT FOURCHON* MOSUNNY   84  75  74 S6        29.99S

$$

MSZ070-080>082-201000-
SOUTHERN MISSISSIPPI

CITY           SKY/WX    TMP DP  RH WIND       PRES   REMARKS
MCCOMB         PTCLDY    73  71  93 CALM      30.00R
GULFPORT       MOCLDY    79  76  90 CALM      29.98R
BILOXI         CLOUDY    82  77  83 W2        29.98R
PASCAGOULA     PTCLDY    76  75  97 CALM      29.98R

$$

COASTAL OBSERVATIONS
LAKE AND NEARSHORE STATIONS

STATION/POSITION TIME  TEMP    WIND        PRES    WAVE
                       AIR SEA DIR/SP/G            HT/PER
                 (UTC) (F)     (DEG/KT/KT) (MB)    (FT/S)
PASCAGOULA       0800   85     230/ 12/ 16 1014.5
WAVELAND YACHT   0800   80     300/  4/  5 1014.5
GRAND ISLE       0800   85 88  210/  8/ 10 1015.7
SOUTHWEST PASS   0800   85 88  190/  8/ 12 1015.3
NEW CANAL        0800   81 84  210/  3/  4 1015.5
SHELL BEACH      0800   81 82  220/  4/  5 1015.0

OFFSHORE STATIONS

STATION/POSITION TIME  TEMP    WIND        PRES    WAVE
                       AIR SEA DIR/SP/G            HT/PER
                 (UTC) (F)     (DEG/KT/KT) (MB)    (FT/S)
64 S DAUPHIN ISL 0900   85 87  210/ 14/ 16 1015.0

$$




USA.gov is the U.S. government's official web portal to all federal, state and local government web resources and services.